Regional Weather Roundup
Issued by NWS Charleston, SC

Current Version | Previous Version | Graphics & Text | Print | Product List | Glossary On
Versions: 1 2 3 4 5 6 7 8 9 10 11 12 13 14 15 16 17 18 19 20 21 22 23 24 25 26 27 28 29 30 31 32 33 34 35 36 37 38 39 40 41 42 43 44 45 46 47 48 49 50
000 ASUS42 KCHS 201012 RWRCHS REGIONAL WEATHER ROUNDUP NATIONAL WEATHER SERVICE CHARLESTON SC 600 AM EDT FRI OCT 20 2017 NOTE: "FAIR" INDICATES FEW OR NO CLOUDS BELOW 12,000 FEET WITH NO SIGNIFICANT WEATHER AND/OR OBSTRUCTIONS TO VISIBILITY. NOT ALL STATIONS ARE QUALITY CONTROLLED. USE DATA WITH CAUTION... ESPECIALLY DEWPOINT OBSERVATIONS. SCZ027-030-031-034>040-042>050-201100- ...SOUTHEAST SOUTH CAROLINA... CITY SKY/WX TMP DP RH WIND PRES REMARKS N CHARLESTON FAIR 55 53 93 N6 30.21R WATERFRONT PRK N/A 64 58 81 N7 30.06R JOHNS ISLAND FAIR 61 57 88 N7 30.21R PINOPOLIS N/A 66 61 82 N6 30.13R MONCKS CORNER FAIR 52 50 93 CALM 30.22S SUMMERVILLE FAIR 52 50 93 CALM 30.23S BEAUFORT MCAS FAIR 56 56 100 MISG 30.22R BEAUFORT ARPT FAIR 59 55 88 N5 30.21R HILTON HEAD IS NOT AVBL WALTERBORO FAIR 48 48 100 CALM 30.24R ALLENDALE N/A 48 48 100 CALM N/A ...SOUTHERN MIDLANDS AND PEE DEE... CITY SKY/WX TMP DP RH WIND PRES REMARKS GEORGETOWN FAIR 55 54 94 CALM 30.23S KINGSTREE FAIR 46 45 93 CALM 30.24R ORANGEBURG FAIR 50 47 89 CALM 30.24R BARNWELL N/A 45 45 100 CALM 30.24S AIKEN FAIR 43 41 93 CALM 30.28R MANNING FOG 46 45 93 MISG 30.23S VSB<1/4 COLUMBIA FAIR 44 42 93 VRB3 30.24R SUMTER FAIR 50 44 80 CALM 30.22R FLORENCE FAIR 48 48 100 CALM 30.24R MYRTLE BEACH FAIR 57 54 89 NW3 30.23R N MYRTLE BEACH FAIR 55 54 96 CALM 30.21S $$ GAZ063-065-086>088-099>101-113>116-118-119-134>141-150-201100- ...SOUTHEAST GEORGIA... CITY SKY/WX TMP DP RH WIND PRES REMARKS SAVANNAH ARPT FAIR 56 55 97 N3 30.21R HUNTER AAF FAIR 59 56 89 N3 30.18R FORT STEWART FAIR 54 52 93 CALM 30.19R STATESBORO FAIR 48 48 100 CALM 30.23R SYLVANIA FAIR 49 49 100 CALM 30.24R CLAXTON FAIR 49 48 99 CALM 30.22S ...CSRA...CENTRAL AND FAR SOUTHEAST GEORGIA... CITY SKY/WX TMP DP RH WIND PRES REMARKS THOMSON FAIR 40 39 96 CALM 30.31R AUGUSTA-BUSH FAIR 46 42 86 CALM 30.25R AUGUSTA-DANIEL FAIR 54 45 71 CALM 30.25R SWAINSBORO FAIR 52 52 100 MISG 30.25R VIDALIA FAIR 52 50 93 CALM 30.23R EASTMAN FAIR 46 46 100 CALM 30.26R FOG HAZLEHURST FOG 52 50 92 CALM 30.21S VSB 1/2 ALMA FAIR 56 54 93 CALM 30.21R WAYCROSS FAIR 56 54 91 CALM 30.20S FOG JESUP NOT AVBL BAXLEY FAIR 50 50 100 CALM 30.21R BRUNSWICK FAIR 63 57 82 N5 30.19S SAINT SIMONS FAIR 65 63 93 N6 30.17S $$ SCZ027-028-034-036>038-045-046-048>050-GAZ119-141-201100- ...LAKE AND SUPPLEMENTAL COASTAL OBSERVATIONS... STATION/POSITION TIME TEMP WIND PRES WAVE SWELL AIR SEA DIR/SP/G HT/PER HT/PER/DIR (UTC) (F) (DEG/KT/KT) (MB) (FT/S) (FT/S/D) WINYAH BAY NOT AVBL LAKE MURRAY 0920 52 CALM 1023.4R ACE BASIN NERRS 0845 56 CALM 1023.0 FORT PULASKI 0936 64 74 360/ 4/ 5 1022.9R SAPELO ISLAND 0900 64 20/ 7 1022.0 $$ ANZ835-935-AMZ111-154-330-350-352-354-370-450-454-472-201100- ...C-MAN AND BUOY OBSERVATIONS... STATION/POSITION TIME TEMP WIND PRES WAVE SWELL AIR SEA DIR/SP/G HT/PER HT/PER/DIR (UTC) (F) (DEG/KT/KT) (MB) (FT/S) (FT/S/D) BUOY 41004 0950 75 79 40/ 10/ 12 1021.6R 5/ 9 3/120/ 9 BUOY 41008 0950 74 77 50/ 14/ 17 1021.2S 5/ 8 3/130/ 8 FOLLY BEACH CMAN 0900 64 350/ 7/ 9 1022.9S CAPERS NEARSHORE 0908 65 73 10/ 12/ 16 1022.1S FRIPP NEARSHORE 0908 70 10/ 10/ 12 N/A STATION/POSITION TIME TEMP WIND PRES WAVE SWELL AIR SEA DIR/SP/G HT/PER HT/PER/DIR (UTC) (F) (DEG/KT/KT) (MB) (FT/S) (FT/S/D) 5E ST. MARYS GA 1000 77 N/A 5/ 8 FRYING PAN BUOY 0950 72 76 360/ 10/ 12 1022.2R 4/ 8 3/110/ 8 BUOY 41025 0950 73 81 340/ 8/ 10 1022.0R 3/ 8 3/110/ 8 CAPE LOOKOUT NC 0900 65 350/ 5/ 6 1022.1S BUOY 41002 0950 77 80 40/ 14/ 16 1019.6R 6/ 9 5/100/ 9 BUOY 41010 NOT AVBL ST AUGUSTINE FL 1000 78 77 50/ 13/ 14 1020.6R $$

USA.gov is the U.S. government's official web portal to all federal, state and local government web resources and services.